Change the Weather History Date:

Sunday, March 31, 2013

  Actual Average (KMSY) Record (KMSY)
Temperature  
Mean Temperature 66 °F -  
Max Temperature 78 °F 73 °F 86 °F (1954)
Min Temperature 53 °F 53 °F 34 °F (1971)
Growing Degree Days 16 (Base 50)    
Moisture  
Dew Point 57 °F    
Average Humidity 81    
Maximum Humidity 94    
Minimum Humidity 47    
Precipitation  
Precipitation 0.02 in - - ()
Sea Level Pressure  
Sea Level Pressure 30.00 in    
Wind  
Wind Speed 3 mph (SW)    
Max Wind Speed 23 mph    
Max Gust Speed 46 mph    
Visibility 9 miles    
Events Fog , Rain , Thunderstorm    
Averages and records for this station are not official NWS values.
T = Trace of Precipitation, MM = Missing Value Source: NWS Daily Summary

Daily Weather History Graph

Daily Weather History Graph

Search for Another Location

Airport or City:

Trip Planner

Search our weather history database for the weather conditions in past years. The results will help you decide how hot, cold, wet, or windy it might be!

Date:

Astronomy

Mar. 31, 2013 Rise Set
Actual Time 6:51 AM CDT 7:20 PM CDT
Civil Twilight 6:27 AM CDT 7:44 PM CDT
Nautical Twilight 5:59 AM CDT 8:12 PM CDT
Astronomical Twilight 5:30 AM CDT 8:41 PM CDT
Moon No Moon Rise 9:57 AM CDT (3/31)
Length of Visible Light 13h 16m
Length of Day
12h 28m
Waning Gibbous, 77% of the Moon is Illuminated
Mar 31
Waning Gibbous
Apr 2
Last Quarter
Apr 10
New
Apr 18
First Quarter
Apr 25
Full

Hourly Weather History & Observations

Time (CDT) Temp. Dew Point Humidity Pressure Visibility Wind Dir Wind Speed Gust Speed Precip Events Conditions
12:15 AM 59.0 °F 53.6 °F 82% 30.07 in 10.0 mi Calm Calm - N/A   Clear
12:35 AM 59.0 °F 55.4 °F 88% 30.06 in 10.0 mi Calm Calm - N/A   Clear
12:55 AM 57.2 °F 53.6 °F 88% 30.06 in 10.0 mi Calm Calm - N/A   Clear
1:15 AM 55.4 °F 51.8 °F 88% 30.06 in 10.0 mi Calm Calm - N/A   Clear
1:35 AM 55.4 °F 51.8 °F 88% 30.06 in 10.0 mi Calm Calm - N/A   Clear
1:55 AM 55.4 °F 51.8 °F 88% 30.05 in 10.0 mi Calm Calm - N/A   Clear
2:15 AM 57.2 °F 53.6 °F 88% 30.05 in 10.0 mi Calm Calm - N/A   Clear
2:35 AM 55.4 °F 51.8 °F 88% 30.05 in 10.0 mi Calm Calm - N/A   Scattered Clouds
2:55 AM 55.4 °F 51.8 °F 88% 30.04 in 10.0 mi Calm Calm - N/A   Scattered Clouds
3:15 AM 53.6 °F 50.0 °F 88% 30.04 in 10.0 mi Calm Calm - N/A   Scattered Clouds
3:35 AM 53.6 °F 51.8 °F 94% 30.03 in 10.0 mi Calm Calm - N/A   Mostly Cloudy
3:55 AM 53.6 °F 51.8 °F 94% 30.03 in 10.0 mi Calm Calm - N/A   Scattered Clouds
4:15 AM 53.6 °F 51.8 °F 94% 30.02 in 10.0 mi Calm Calm - N/A   Clear
4:35 AM 53.6 °F 51.8 °F 94% 30.02 in 10.0 mi Calm Calm - N/A   Scattered Clouds
4:55 AM 55.4 °F 51.8 °F 88% 30.02 in 10.0 mi Calm Calm - N/A   Overcast
5:15 AM 57.2 °F 53.6 °F 88% 30.02 in 7.0 mi Calm Calm - N/A   Overcast
5:35 AM 57.2 °F 55.4 °F 94% 30.02 in 7.0 mi Calm Calm - N/A   Overcast
5:55 AM 59.0 °F 53.6 °F 82% 30.02 in 10.0 mi Calm Calm - N/A   Overcast
6:15 AM 59.0 °F 55.4 °F 88% 30.02 in 7.0 mi Calm Calm - N/A   Overcast
6:35 AM 59.0 °F 57.2 °F 94% 30.03 in 5.0 mi Calm Calm - N/A   Overcast
6:55 AM 60.8 °F 57.2 °F 88% 30.02 in 1.5 mi Calm Calm - N/A   Overcast
7:15 AM 62.6 °F 59.0 °F 88% 30.02 in 0.2 mi Calm Calm - N/A Fog Fog
7:35 AM 62.6 °F 59.0 °F 88% 30.02 in 0.5 mi Calm Calm - N/A Fog Fog
7:55 AM 62.6 °F 60.8 °F 94% 30.02 in 0.2 mi South 3.5 mph - N/A Fog Fog
8:15 AM 62.6 °F 60.8 °F 94% 30.02 in 0.2 mi South 3.5 mph - N/A Fog Fog
8:35 AM 64.4 °F 60.8 °F 88% 30.02 in 0.2 mi SSW 3.5 mph - N/A Fog Fog
8:55 AM 64.4 °F 62.6 °F 94% 30.02 in 1.8 mi SSW 4.6 mph - N/A   Overcast
9:15 AM 66.2 °F 62.6 °F 88% 30.02 in 5.0 mi SSW 5.8 mph - N/A   Overcast
9:35 AM 66.2 °F 62.6 °F 88% 30.02 in 7.0 mi SSW 3.5 mph - N/A   Overcast
9:55 AM 68.0 °F 60.8 °F 78% 30.02 in 10.0 mi SW 4.6 mph - N/A   Overcast
10:15 AM 68.0 °F 60.8 °F 78% 30.02 in 10.0 mi SW 6.9 mph - N/A   Overcast
10:35 AM 71.6 °F 60.8 °F 69% 30.02 in 10.0 mi SSW 5.8 mph - N/A   Overcast
10:55 AM 71.6 °F 60.8 °F 69% 30.02 in 10.0 mi SSW 8.1 mph - N/A   Mostly Cloudy
11:15 AM 73.4 °F 60.8 °F 65% 30.02 in 10.0 mi SSW 10.4 mph - N/A   Scattered Clouds
11:35 AM 75.2 °F 59.0 °F 57% 30.01 in 10.0 mi South 12.7 mph 20.7 mph N/A   Scattered Clouds
11:55 AM 73.4 °F 59.0 °F 61% 30.01 in 10.0 mi SW 6.9 mph - N/A   Mostly Cloudy
12:15 PM 73.4 °F 59.0 °F 61% 30.00 in 10.0 mi South 9.2 mph - N/A   Mostly Cloudy
12:35 PM 75.2 °F 59.0 °F 57% 30.00 in 10.0 mi South 9.2 mph - N/A   Mostly Cloudy
12:55 PM 77.0 °F 60.8 °F 57% 29.99 in 10.0 mi SSW 11.5 mph 17.3 mph N/A   Overcast
1:15 PM 77.0 °F 59.0 °F 54% 29.98 in 10.0 mi SSW 5.8 mph - N/A   Overcast
1:35 PM 77.0 °F 60.8 °F 57% 29.98 in 10.0 mi SW 10.4 mph - N/A   Mostly Cloudy
1:55 PM 78.8 °F 60.8 °F 54% 29.97 in 10.0 mi South 11.5 mph - N/A   Mostly Cloudy
2:15 PM 77.0 °F 60.8 °F 57% 29.95 in 10.0 mi SSW 5.8 mph - N/A   Mostly Cloudy
2:35 PM 78.8 °F 59.0 °F 51% 29.95 in 10.0 mi WSW 11.5 mph - N/A   Mostly Cloudy
2:55 PM 78.8 °F 57.2 °F 47% 29.94 in 10.0 mi SW 9.2 mph 16.1 mph N/A   Mostly Cloudy
3:15 PM 78.8 °F 57.2 °F 47% 29.94 in 10.0 mi WSW 8.1 mph - N/A   Mostly Cloudy
3:35 PM 77.0 °F 59.0 °F 54% 29.93 in 10.0 mi West 10.4 mph - N/A   Overcast
3:55 PM 75.2 °F 59.0 °F 57% 29.95 in 10.0 mi West 6.9 mph - N/A Thunderstorm Overcast
4:15 PM 62.6 °F 55.4 °F 77% 30.02 in 2.5 mi NNW 23.0 mph 46.0 mph N/A Rain , Thunderstorm Heavy Thunderstorms and Rain
4:35 PM 59.0 °F 55.4 °F 88% 30.00 in - NNW 17.3 mph - N/A Rain , Thunderstorm Thunderstorms and Rain
4:55 PM 59.0 °F 55.4 °F 88% 30.00 in 7.0 mi NW 10.4 mph 21.9 mph N/A Rain Rain
5:15 PM 59.0 °F 55.4 °F 88% 30.00 in 7.0 mi NNW 9.2 mph - N/A Rain Rain
5:35 PM 59.0 °F 55.4 °F 88% 30.00 in 10.0 mi NNW 5.8 mph - 0.01 in Rain Rain
5:55 PM 59.0 °F 55.4 °F 88% 29.98 in 10.0 mi Calm Calm - 0.01 in Rain Light Rain
6:15 PM 59.0 °F 55.4 °F 88% 29.95 in 10.0 mi SE 3.5 mph - N/A Rain Light Rain
6:35 PM 60.8 °F 57.2 °F 88% 29.93 in 10.0 mi South 8.1 mph - N/A Rain Light Rain
6:55 PM 59.0 °F 57.2 °F 94% 29.92 in 10.0 mi South 6.9 mph - N/A   Clear
7:15 PM 59.0 °F 55.4 °F 88% 29.92 in 10.0 mi South 6.9 mph - N/A   Clear
7:35 PM 59.0 °F 55.4 °F 88% 29.92 in 10.0 mi South 6.9 mph - N/A   Clear
7:55 PM 59.0 °F 55.4 °F 88% 29.92 in 10.0 mi SSE 3.5 mph - N/A   Mostly Cloudy
8:15 PM 59.0 °F 57.2 °F 94% 29.92 in 10.0 mi SSE 3.5 mph - 0.01 in   Mostly Cloudy
8:35 PM 59.0 °F 57.2 °F 94% 29.94 in 10.0 mi Calm Calm - 0.01 in   Scattered Clouds
8:55 PM 59.0 °F 57.2 °F 94% 29.95 in 10.0 mi South 4.6 mph - 0.01 in   Clear
9:15 PM 59.0 °F 57.2 °F 94% 29.96 in 10.0 mi Calm Calm - N/A   Clear
9:35 PM 59.0 °F 57.2 °F 94% 29.97 in 10.0 mi NNW 4.6 mph - N/A   Clear
9:55 PM 59.0 °F 55.4 °F 88% 29.97 in 10.0 mi Calm Calm - N/A   Clear
10:15 PM 57.2 °F 55.4 °F 94% 29.98 in 10.0 mi Calm Calm - N/A   Scattered Clouds
10:35 PM 59.0 °F 55.4 °F 88% 29.99 in 10.0 mi Calm Calm - N/A   Mostly Cloudy
10:55 PM 59.0 °F 55.4 °F 88% 29.98 in 10.0 mi North 4.6 mph - N/A   Overcast
11:15 PM 59.0 °F 55.4 °F 88% 29.98 in 10.0 mi Calm Calm - N/A   Overcast
11:55 PM 59.0 °F 55.4 °F 88% 29.98 in 10.0 mi North 3.5 mph - N/A   Overcast